41P/Tuttle-Giacobini-Kresak (2022)

Japanese version
Home page
Updated on September 28, 2023

---------------------------------------------------------------------

* Profile

* Pictures

* Orbital Elements

Epoch 2023 Sept. 13.0 TT = JDT 2460200.5
T 2022 Sept. 13.72617 TT                                Rudenko
q   1.0506856            (2000.0)            P               Q
n   0.18158571     Peri.   62.22729     -0.91185096     +0.39793928
a   3.0885048      Node   140.98569     -0.40986585     -0.86861311
e   0.6598077      Incl.    9.21933     -0.02319095     -0.29522127
P   5.43
>From 4453 observations 2016 Nov. 10-2023 Aug. 23, mean residual 0".5.
     Nongravitational parameters A1 = +0.66, A2 = -0.0110.

* Finding Charts

* Magnitudes Graph

        m1 = 10.0 + 5 log d + 33.0 log r  [  ,82]  (             - 2022 Sept.13)
        m1 = 14.0 + 5 log d + 10.0 log r  [82,  ]  (2022 Sept.13 -             )

---------------------------------------------------------------------

The orbital elements are published on M.P.E.C. 2023-Q150.
The charts are made with StellaNavigator Ver.10 (AstroArts).
The magnitudes graphs are made with Comet for Windows.

---------------------------------------------------------------------

Copyright(C) Seiichi Yoshida (comet@aerith.net). All rights reserved.